User: anonymous   Login
Location: Newark
(41.0400°S, 62.7845°W)
Time: 10:21:16
(UTC+00:00)
Language:

Vanguard 2 - Orbit

View from above orbital plane
View from above orbital plane
View from above satellite
View from above satellite

Ground track
Ground track

The orbit data is extracted from the following two-line orbital elements,

1 00011U 59001A   22276.36120524  .00000417  00000-0  20631-3 0  9996
2 00011  32.8745 148.5381 1467100 303.1467  43.6646 11.86175316374479
Epoch (UTC): 03 October 2022 08:40:08
Eccentricity: 0.1467100
inclination: 32.8745°
perigee height: 552 km
apogee height: 2935 km
right ascension of ascending node: 148.5381°
argument of perigee: 303.1467°
revolutions per day: 11.86175316
mean anomaly at epoch: 43.6646°
orbit number at epoch: 37447

The dashed part of the orbit path shows where the satellite is in the earth's shadow,  

DLR